Content
SEND FEEDBACK

Daily
Averages
Monthly
Summary
United States of America

HAZELWOOD, MISSOURI


Home > North America > United States > Missouri
Elevation: 570 feet     Latitude: 38 45N     Longitude: 090 22W

WEATHER
 
SELECT A DAY
Number of Records: 196,649;   Date Range: 1/1/95 - 9/18/14
 
SHARE

PRINT THIS DATA

[ ← Previous Day ]
WEATHER ALMANAC - MARCH 15, 2013
[ Next Day → ]
[ °C ]   °F
Weather ElementAverageHighLow
Temperature51.1 °F72 °F (1:54 pm)28 °F (3:54 am)
Dewpoint36.5 °F44.1 °F (8:54 pm)25 °F (3:54 am)
Humidity63.3 %92 % (5:54 am)29 % (2:54 pm)
Barometer29.86 in30.08 in (1:54 am)29.66 in (11:54 pm)
Wind Speed1.4 mph8.1 mph (7:54 pm)
Weather ElementAverage
Visibility9.8 mi
Wind DirectionENE (53.5 °)

Weather ElementTotal
Precipitation---
Heating Degree Days15 (Base 65)
Averaged from 23 records on March 15, 2013
WEATHER CONDITIONS BREAKOUT
WIND DIRECTION BREAKOUT
WEATHER BY HOUR - MARCH 15, 2013
[ °C ]   °F
Local TimeTemperatureDewpointHumidityBarometerVisibilityWind DirectionWind SpeedGust SpeedPrecipitationEventsConditions
1:54 AM30.9 °F28.0 °F89 %30.08 in10.0 miCalmClear
2:54 AM30.0 °F27.0 °F88 %30.06 in10.0 miCalmClear
3:54 AM28.0 °F25.0 °F88 %30.02 in10.0 miWest (260°)3.5 mphClear
4:54 AM30.0 °F26.1 °F85 %30.01 in8.0 miCalmClear
5:54 AM28.9 °F27.0 °F92 %30.00 in8.0 miCalmClear
6:54 AM28.9 °F26.1 °F89 %30.00 in9.0 miCalmClear
7:54 AM30.0 °F28.0 °F92 %30.00 in10.0 miCalmMostly Cloudy
8:54 AM36.0 °F32.0 °F86 %29.99 in10.0 miCalmMostly Cloudy
9:54 AM44.1 °F36.0 °F73 %29.98 in10.0 miCalmMostly Cloudy
10:54 AM53.1 °F39.9 °F61 %29.96 in10.0 miCalmMostly Cloudy
11:54 AM63.0 °F42.1 °F46 %29.94 in10.0 miCalmMostly Cloudy
12:54 PM68.0 °F42.1 °F39 %29.90 in10.0 miCalmMostly Cloudy
1:54 PM72.0 °F39.9 °F31 %29.85 in10.0 miCalmMostly Cloudy
2:54 PM72.0 °F37.9 °F29 %29.80 in10.0 miCalmOvercast
3:54 PM72.0 °F39.9 °F31 %29.76 in10.0 miSSE (150°)5.8 mphOvercast
4:54 PM71.1 °F42.1 °F35 %29.73 in10.0 miSSE (150°)5.8 mphClear
5:54 PM71.1 °F42.1 °F35 %29.70 in10.0 miSSE (160°)5.8 mphOvercast
6:54 PM69.1 °F43.0 °F39 %29.69 in10.0 miCalmMostly Cloudy
7:54 PM68.0 °F43.0 °F40 %29.68 in10.0 miSouth (180°)8.1 mphMostly Cloudy
8:54 PM61.0 °F44.1 °F54 %29.68 in10.0 miNNW (330°)3.5 mphClear
9:54 PM53.1 °F44.1 °F71 %29.68 in10.0 miCalmClear
10:54 PM50.0 °F43.0 °F77 %29.68 in10.0 miCalmClear
11:54 PM46.0 °F42.1 °F86 %29.66 in10.0 miCalmClear
Hourly data recorded from KSUS, located miles away from Hazelwood, Missouri







STORIES FROM OUR PARTNERS